Regional Weather Roundup
Issued by NWS Upton, NY

Current Version | Previous Version | Text Only | Print | Product List | Glossary On
Versions: 1 2 3 4 5 6 7 8 9 10 11 12 13 14 15 16 17 18 19 20 21 22 23 24 25 26 27 28 29 30 31 32 33 34 35 36 37 38 39 40 41 42 43 44 45 46 47 48 49 50
000
ASUS41 KOKX 191405
RWROKX

REGIONAL WEATHER ROUNDUP
NATIONAL WEATHER SERVICE NEW YORK NY
900 AM EST FRI DEC 19 2014

NOTE: "FAIR" INDICATES FEW OR NO CLOUDS BELOW 12,000 FEET WITH NO
SIGNIFICANT WEATHER AND/OR OBSTRUCTIONS TO VISIBILITY.

NYZ071-072-176-178-NJZ106-104-191500-
NEW YORK CITY METRO AREA


CITY           SKY/WX    TMP DP  RH WIND       PRES   REMARKS
CENTRAL PARK   CLOUDY    36  20  52 N5        30.07R WCI  32
LAGUARDIA APRT CLOUDY    35  23  61 NW16      30.05R WCI  25
KENNEDY INTL   PTSUNNY   38  21  50 NW16      30.05R WCI  29
NEWARK/LIBERTY CLOUDY    37  23  56 NW14      30.05R WCI  28
BRNX BOT. GARD   N/A    N/A N/A N/A W6        30.04F
TETERBORO      CLOUDY    35  21  56 N10G18    30.05R WCI  27
$$

NYZ177-179-078>081-191500-
LONG ISLAND NEW YORK

CITY           SKY/WX    TMP DP  RH WIND       PRES   REMARKS
FARMINGDALE    CLOUDY    37  22  54 NW8       30.03R WCI  31
ISLIP          CLOUDY    37  23  56 NW10      30.00R WCI  30
SHIRLEY        CLOUDY    37  26  64 NW8       30.02R WCI  31
WESTHAMPTON    CLOUDY    37  24  59 NW12      30.01R WCI  29
MONTAUK POINT    N/A     37  22  54 NW14G23   29.99R WCI  28
$$

NYZ052-065-067-191500-
HUDSON VALLEY

CITY           SKY/WX    TMP DP  RH WIND       PRES   REMARKS
WHITE PLAINS   PTSUNNY   34  22  61 W10       30.01R WCI  26
NEWBURGH       NOT AVBL
MONTGOMERY     CLOUDY    32  20  61 NW9       30.03R WCI  24
POUGHKEEPSIE   CLOUDY    34  19  54 NW9       30.04R WCI  27
ALBANY         CLOUDY    30  20  66 NW13      30.05R WCI  20
$$

NJZ001-105-106-008-010-013-015-019>022-104-191500-
NEW JERSEY

CITY           SKY/WX    TMP DP  RH WIND       PRES   REMARKS
NEWARK/LIBERTY CLOUDY    37  23  56 NW14      30.05R WCI  28
TETERBORO      CLOUDY    35  21  56 N10G18    30.05R WCI  27
CALDWELL       CLOUDY    34  21  59 N10       30.06R WCI  26
MORRISTOWN     CLOUDY    37  23  56 N12       30.05R WCI  30
SOMERVILLE     CLOUDY    37  23  56 NW9       30.04R WCI  30
SUSSEX         CLOUDY    32  20  61 NW10G23   30.05R WCI  24
ANDOVER          N/A     32  21  64 N7        30.05R WCI  26
TRENTON        CLOUDY    36  26  67 W8        30.06R WCI  30
MILLVILLE      CLOUDY    36  26  67 W12       30.09R WCI  28
ATLANTIC CITY  CLOUDY    36  26  67 W12       30.07R WCI  28
WRIGHTSTOWN    CLOUDY    37  26  66 NW10      30.04R WCI  29
TOMS RIVER     CLOUDY    37  27  65 W8        30.06R WCI  31
BELMAR         CLOUDY    37  21  52 NW9       30.04R WCI  31
$$

PAZ047>061-062-071-191500-
EASTERN PENNSYLVANIA

CITY           SKY/WX    TMP DP  RH WIND       PRES   REMARKS
PHILADELPHIA   CLOUDY    38  25  59 W10       30.10R WCI  31
ALLENTOWN      CLOUDY    36  26  67 NW7       30.07R WCI  30
SCRANTON       CLOUDY    31  21  66 N9        30.06R WCI  23
$$

CTZ002-004>006-009-010-012-RIZ004-006-007-MAZ004-011-015-191500-
SOUTHERN NEW ENGLAND
 IN CT

CITY           SKY/WX    TMP DP  RH WIND       PRES   REMARKS
BRADLEY INTL   CLOUDY    34  21  59 NW10      29.98R WCI  26
HARTFORD       CLOUDY    35  21  56 NW8       30.00R WCI  29
DANBURY        CLOUDY    33  21  61 N10G17    30.02R WCI  25
WTRBRY/OXFORD  CLOUDY    32  18  55 N12G17    29.99R WCI  23
BRIDGEPORT     CLOUDY    37  25  61 N7        30.02R WCI  32
MERIDEN        CLOUDY    35  20  54 NW9       30.00R WCI  28
NEW HAVEN      CLOUDY    38  23  55 NW7       30.01R WCI  33
CHESTER        CLOUDY    34  23  64 NW10G18   29.98S WCI  26
GROTON         CLOUDY    35  22  58 NW15G22   29.98R WCI  25
WILLIMANTIC    CLOUDY    34  21  59 W13G18    29.98R WCI  25

 IN RI

CITY           SKY/WX    TMP DP  RH WIND       PRES   REMARKS
PROVIDENCE     PTSUNNY   36  23  59 NW10      29.95R WCI  28
BLOCK ISLAND   MOSUNNY   37  21  52 NW13G20   29.95R WCI  29
WESTERLY       SUNNY     36  22  56 NW9G18    29.97R WCI  29

 IN MA

CITY           SKY/WX    TMP DP  RH WIND       PRES   REMARKS
BOSTON         PTSUNNY   35  23  61 NW10      29.95R WCI  27
WORCESTER      CLOUDY    30  22  72 NW17      29.91R WCI  18
WESTFIELD      CLOUDY    33  21  61 N12       29.98R WCI  24
PROVINCETOWN   CLOUDY    36  25  64 NW16      29.93R WCI  26
NANTUCKET      CLOUDY    37  25  61 NW15      29.93R WCI  28
$$

ANZ330-335-338-340-345-350-353-355-191500-
COASTAL MARINE OBSERVATIONS


STATION/POSITION TIME  SKY/WX   TEMP    WIND        PRES    VSBY  WAVE
                                AIR SEA DIR/SP/G                  HT/PER
                 (UTC)          (F)     (DEG/KT/KT) (MB)    (MI)  (FT/S)
NY HARB ENTRANCE 1400            39 47  320/ 16/ 19 1017.0          2/ 3
4S FIRE IS       1300               47                N/A           2/ 4
20S FIRE ISLAND  1300            40 49              1016.2          3/ 5
23SW MTP         1400                                 N/A           3/ 4
HUDSON CANYON    1400            42 55  320/ 16/ 25 1015.6          5/ 6
EXECUTION ROCKS  1400            37 42  290/ 14/ 19   N/A
WESTERN LI SOUND 1400            37     290/ 14/ 17   N/A           1/ 2
CENTRAL LI SOUND 1400            36 44  330/ 16/ 19   N/A           2/ 3
EASTERN LI SOUND NOT AVBL
ROBBINS REEF     1400            36      10/ 11/ 17 1016.2
$$


>>>>>>>>>>>>>>>>>>>>>>>>>>>> KEY <<<<<<<<<<<<<<<<<<<<<<<<<<<
>                                                          <
>     SKY/WX - SKY CONDITION/PRESENT WEATHER               <
>     TMP    - TEMPERATURE IN FAHRENHEIT                   <
>     DP     - DEWPOINT IN FAHRENHEIT                      <
>     RH     - RELATIVE HUMIDITY IN PERCENT                <
>     WIND   - DIRECTION AND SPEED IN MPH                  <
>     PRES   - MEAN SEA LEVEL PRESSURE IN INCHES OF HG     <
>     WCI    - WIND CHILL INDEX                            <
>     VSB    - VISIBILITY IN MILES                         <
>     HX     - HEAT INDEX                                  <
>     TC     - TEMPERATURE IN CELSIUS                      <
>     VRB    - VARIABLE WIND DIRECTION                     <
>                                                          <
>>>>>>>>>>>>>>>>>>>>>>>>>>>> KEY <<<<<<<<<<<<<<<<<<<<<<<<<<<




USA.gov is the U.S. government's official web portal to all federal, state and local government web resources and services.